FW1436 Weather Reports


time (UTC)temp
F
wind
direction
speed
knots
gust
knots
rain 1hr
in
rain 24hr
in
rain mn
in
humidity
%
barometer
mb
20260507113037 61 56 0.9 5.2 0.00 0.00 0.00 65 1007.8
20260507111521 61 261 0.0 2.6 0.00 0.00 0.00 63 1008.1
20260507110020 61 96 0.0 1.7 0.00 0.00 0.00 65 1008.1
20260507104517 60 158 1.7 7.0 0.00 0.00 0.00 66 1008.3
20260507103012 59 108 0.9 6.1 0.00 0.00 0.00 68 1008.6
20260507101512 58 48 1.7 5.2 0.00 0.00 0.00 67 1008.9
20260507100015 58 52 0.9 6.1 0.00 0.00 0.00 69 1009.0
20260507094509 57 108 2.6 7.0 0.00 0.00 0.00 69 1009.0
20260507093009 56 145 0.9 6.1 0.00 0.00 0.00 69 1009.0
20260507091501 57 96 0.9 7.0 0.00 0.00 0.00 71 1009.0
20260507090058 56 75 2.6 6.1 0.00 0.00 0.00 72 1009.0
20260507084602 56 59 1.7 7.8 0.00 0.00 0.00 72 1008.8
20260507083052 55 58 1.7 6.1 0.00 0.00 0.00 73 1008.8
20260507081551 55 63 0.9 6.1 0.00 0.00 0.00 74 1008.8
20260507080049 54 70 1.7 5.2 0.00 0.00 0.00 74 1008.9
20260507074551 54 37 0.9 4.3 0.00 0.00 0.00 75 1008.9
20260507073107 54 97 1.7 4.3 0.00 0.00 0.00 75 1008.8
20260507071543 53 98 1.7 4.3 0.00 0.00 0.00 75 1008.9
20260507070043 53 97 0.9 3.5 0.00 0.00 0.00 75 1009.0
20260507064546 53 9 0.9 3.5 0.00 0.00 0.00 75 1008.9
20260507063047 53 96 0.0 3.5 0.00 0.00 0.00 75 1008.9
20260507061541 53 100 0.0 4.3 0.00 0.00 0.00 74 1008.7
20260507060037 53 110 0.0 4.3 0.00 0.00 0.00 74 1008.6
20260507054537 53 91 1.7 6.1 0.00 0.00 0.00 73 1008.4
20260507053037 53 82 1.7 4.3 0.00 0.00 0.00 73 1008.3
20260507051533 53 87 1.7 7.0 0.00 0.00 0.00 73 1008.4
20260507050035 53 113 0.9 6.1 0.00 0.00 0.00 73 1008.2
20260507044533 53 84 1.7 7.0 0.00 0.00 0.00 72 1008.4
20260507043032 53 55 0.9 5.2 0.00 0.00 0.00 72 1008.3
20260507041631 53 110 0.9 7.0 0.00 0.00 0.00 72 1008.3
20260507040028 53 209 1.7 7.0 0.00 0.00 0.00 72 1008.3
20260507034534 53 103 0.9 5.2 0.00 0.00 0.00 73 1008.4
20260507033026 52 65 0.0 3.5 0.00 0.00 0.00 73 1008.5
20260507031525 52 22 0.9 4.3 0.00 0.00 0.00 72 1008.5
20260507030024 53 55 2.6 5.2 0.00 0.00 0.00 72 1008.6
20260507024523 52 83 2.6 6.1 0.00 0.00 0.00 72 1008.6
20260507023021 52 49 0.9 5.2 0.00 0.00 0.00 72 1008.6
20260507021520 52 72 2.6 6.1 0.00 0.00 0.00 71 1008.6
20260507020020 52 122 0.9 7.8 0.00 0.00 0.00 71 1008.5
20260507014523 52 78 0.9 5.2 0.00 0.00 0.00 71 1008.5
20260507013016 52 99 0.0 6.1 0.00 0.00 0.00 69 1008.5
20260507011616 53 111 2.6 8.7 0.00 0.00 0.00 68 1008.6
20260507010026 53 63 2.6 7.8 0.00 0.00 0.00 68 1008.7
20260507004510 53 93 2.6 7.8 0.00 0.00 0.00 67 1008.8
20260507003010 53 113 0.0 5.2 0.00 0.00 0.00 66 1008.9
20260507001508 54 84 1.7 5.2 0.00 0.00 0.00 65 1008.7
20260507000007 54 74 0.9 4.3 0.00 0.00 0.00 65 1008.7
20260506234508 53 42 1.7 5.2 0.00 0.00 0.00 64 1008.7
20260506233003 53 68 0.0 1.7 0.00 0.00 0.00 63 1008.6
20260506231502 53 46 0.0 0.9 0.00 0.00 0.00 62 1008.6
20260506230001 53 82 0.0 0.9 0.00 0.00 0.00 61 1008.6
20260506224618 53 71 0.0 1.7 0.00 0.00 0.00 59 1008.5
20260506223059 54 75 0.0 0.9 0.00 0.00 0.00 57 1008.4
20260506221556 54 69 0.0 0.0 0.00 0.00 0.00 54 1008.4
20260506220104 54 68 0.0 0.0 0.00 0.00 0.00 56 1008.4
20260506214552 55 68 0.0 0.0 0.00 0.00 0.00 53 1008.5
20260506213051 55 68 0.0 0.0 0.00 0.00 0.00 54 1008.4
20260506211555 55 69 0.0 0.9 0.00 0.00 0.00 54 1008.4
20260506210050 55 69 0.0 0.0 0.00 0.00 0.00 55 1008.3
20260506204550 56 69 0.0 0.9 0.00 0.00 0.00 54 1008.3
20260506203056 57 69 0.0 0.9 0.00 0.00 0.00 52 1008.2
20260506201549 57 122 0.0 0.0 0.00 0.00 0.00 51 1008.0
20260506200048 59 122 0.0 0.9 0.00 0.00 0.00 50 1008.0
20260506194552 60 122 0.0 0.0 0.00 0.00 0.00 45 1007.8
20260506193051 61 122 0.0 0.0 0.00 0.00 0.00 43 1007.7
20260506191547 62 125 0.0 1.7 0.00 0.00 0.00 41 1007.8
20260506190046 63 127 0.0 1.7 0.00 0.00 0.00 41 1007.7
20260506184546 65 143 0.0 2.6 0.00 0.00 0.00 38 1007.6
20260506183046 67 130 0.9 1.7 0.00 0.00 0.00 36 1007.6
20260506181559 68 134 0.0 2.6 0.00 0.00 0.00 35 1007.6
20260506180044 67 146 0.9 2.6 0.00 0.00 0.00 36 1007.6
20260506174542 68 162 0.9 2.6 0.00 0.00 0.00 36 1007.7
20260506173059 67 182 0.9 3.5 0.00 0.00 0.00 37 1007.8
20260506171547 68 104 0.9 4.3 0.00 0.00 0.00 37 1007.7
20260506170039 67 271 0.0 5.2 0.00 0.00 0.00 38 1007.8
20260506164539 67 153 0.9 6.1 0.00 0.00 0.00 37 1007.8
20260506163038 67 96 1.7 6.1 0.00 0.00 0.00 39 1007.9
20260506161537 67 168 0.9 6.1 0.00 0.00 0.00 38 1007.9
20260506160040 68 18 0.9 5.2 0.00 0.00 0.00 37 1008.0
20260506154535 66 352 0.9 4.3 0.00 0.00 0.00 38 1008.1
20260506153033 66 235 1.7 7.0 0.00 0.00 0.00 38 1008.2
20260506151533 66 167 1.7 7.8 0.00 0.00 0.00 41 1008.3
20260506150031 65 139 1.7 10.4 0.00 0.00 0.00 40 1008.4
20260506144529 66 219 0.9 4.3 0.00 0.00 0.00 39 1008.6
20260506143028 68 176 0.0 3.5 0.00 0.00 0.00 40 1008.8
20260506141523 67 95 0.9 2.6 0.00 0.00 0.00 40 1009.0
20260506140022 65 134 2.6 4.3 0.00 0.00 0.00 41 1009.2
20260506134522 66 248 0.0 3.5 0.00 0.00 0.00 43 1009.4
20260506133016 65 221 1.7 6.1 0.00 0.00 0.00 42 1009.5
20260506131537 65 96 0.9 5.2 0.00 0.00 0.00 44 1009.6
20260506130023 64 52 1.7 5.2 0.00 0.00 0.00 45 1009.7
20260506124514 63 74 0.9 3.5 0.00 0.00 0.00 46 1009.9
20260506123010 64 86 1.7 4.3 0.00 0.00 0.00 45 1010.0
20260506121507 63 281 0.9 4.3 0.00 0.00 0.00 46 1010.2
20260506120013 62 342 1.7 6.1 0.00 0.00 0.00 48 1010.3
20260506114506 62 213 0.0 7.8 0.00 0.00 0.00 48 1010.5